Hourly Data Report for January 14, 2019

TORONTO CITY
ONTARIO
Current Station Operator: ECCC - MSC

43°40'00.000" N
79°24'00.000" W
112.50 m
6158355
71508
XTO

Download Data

Hourly Data (January 2019)
Hourly Data Report for January 14, 2019
TIME
LST
Temp Definition
°C
Dew Point Definition
°C
Rel Hum Definition
%
Precip. Amount Definition
mm

Wind Dir Definition
10's deg

Wind Spd Definition
km/h
Visibility Definition
km
Stn Press Definition
kPa
Hmdx Definition


Wind Chill Definition


Weather Definition


00:00 -6.8 -12.2 66 0.0 LegendMM LegendMM   101.48     LegendNANA
01:00 -6.7 -11.7 68 0.0 LegendMM LegendMM   101.42     LegendNANA
02:00 -6.7 -11.3 70 0.0 LegendMM LegendMM   101.37     LegendNANA
03:00 -6.4 -10.7 72 0.0 LegendMM LegendMM   101.36     LegendNANA
04:00 -6.6 -10.3 75 0.0 LegendMM LegendMM   101.33     LegendNANA
05:00 -6.8 -10.2 76 0.0 LegendMM LegendMM   101.27     LegendNANA
06:00 -6.4 -9.6 78 0.0 LegendMM LegendMM   101.26     LegendNANA
07:00 -5.9 -8.9 79 0.0 LegendMM LegendMM   101.28     LegendNANA
08:00 -5.6 -8.1 82 0.0 LegendMM LegendMM   101.29     LegendNANA
09:00 -4.8 -7.4 83 0.0 LegendMM LegendMM   101.29     LegendNANA
10:00 -3.9 -7.4 77 0.0 LegendMM LegendMM   101.31     LegendNANA
11:00 -3.1 -7.8 70 0.0 LegendMM LegendMM   101.29     LegendNANA
12:00 -2.6 -7.8 67 0.0 LegendMM LegendMM   101.18     LegendNANA
13:00 -2.2 -9.1 59 0.0 LegendMM LegendMM   101.06     LegendNANA
14:00 -1.8 -8.9 58 0.0 LegendMM LegendMM   100.99     LegendNANA
15:00 -1.9 -7.8 64 0.0 LegendMM LegendMM   100.95     LegendNANA
16:00 -2.4 -7.1 70 0.0 LegendMM LegendMM   100.91     LegendNANA
17:00 -2.6 -6.7 73 0.0 LegendMM LegendMM   100.90     LegendNANA
18:00 -2.1 -6.7 71 0.0 LegendMM LegendMM   100.90     LegendNANA
19:00 -2.1 -7.8 65 0.0 LegendMM LegendMM   100.88     LegendNANA
20:00 -2.8 -7.6 69 0.0 LegendMM LegendMM   100.86     LegendNANA
21:00 -3.4 -7.9 71 0.0 LegendMM LegendMM   100.87     LegendNANA
22:00 -3.0 -7.8 69 0.0 LegendMM LegendMM   100.85     LegendNANA
23:00 -2.9 -7.6 70 0.0 LegendMM LegendMM   100.86     LegendNANA

Notes on Data Quality.

Legend

  • E = Estimated
  • M = Missing
  • NA = Not Available*
  • [empty] = Indicates an unobserved value
Date modified: